Change the Weather History Date:

Tuesday, October 22, 2013

  Actual Average Record
Temperature  
Mean Temperature 68 °F -  
Max Temperature 89 °F 74 °F 91 °F (2003)
Min Temperature 48 °F 46 °F 39 °F (1996)
Cooling Degree Days 4    
Growing Degree Days 18 (Base 50)    
Moisture  
Dew Point 37 °F    
Average Humidity 36    
Maximum Humidity 54    
Minimum Humidity 17    
Precipitation  
Precipitation 0.00 in - - ()
Sea Level Pressure  
Sea Level Pressure 29.95 in    
Wind  
Wind Speed 5 mph (NW)    
Max Wind Speed 10 mph    
Max Gust Speed -    
Visibility 8 miles    
Events      
Averages and records for this station are not official NWS values.
T = Trace of Precipitation, MM = Missing Value Source: NWS Daily Summary

Daily Weather History Graph

Daily Weather History Graph

Search for Another Location

Airport or City:

Trip Planner

Search our weather history database for the weather conditions in past years. The results will help you decide how hot, cold, wet, or windy it might be!

Date:

Astronomy

Oct. 22, 2013 Rise Set
Actual Time 7:13 AM PDT 6:14 PM PDT
Civil Twilight 6:47 AM PDT 6:40 PM PDT
Nautical Twilight 6:17 AM PDT 7:10 PM PDT
Astronomical Twilight 5:47 AM PDT 7:40 PM PDT
Moon 9:03 PM PDT (10/22) 10:41 AM PDT (10/22)
Length of Visible Light 11h 53m
Length of Day
11h 00m
Waning Gibbous, 86% of the Moon is Illuminated
Oct 22
Waning Gibbous
Oct 26
Last Quarter
Nov 3
New
Nov 9
First Quarter
Nov 17
Full

Hourly Weather History & Observations

Time (PDT) Temp. Dew Point Humidity Pressure Visibility Wind Dir Wind Speed Gust Speed Precip Events Conditions
12:56 AM 55.0 °F 30.0 °F 38% 29.97 in 9.0 mi West 4.6 mph - N/A   Clear
1:56 AM 54.0 °F 30.9 °F 41% 29.98 in 9.0 mi West 4.6 mph - N/A   Clear
2:56 AM 53.1 °F 30.9 °F 43% 29.97 in 9.0 mi West 3.5 mph - N/A   Clear
3:56 AM 52.0 °F 28.9 °F 41% 29.97 in 8.0 mi West 8.1 mph - N/A   Clear
4:56 AM 51.1 °F 28.9 °F 43% 29.97 in 9.0 mi WSW 8.1 mph - N/A   Clear
5:56 AM 51.1 °F 32.0 °F 48% 29.98 in 9.0 mi West 4.6 mph - N/A   Clear
6:56 AM 50.0 °F 30.9 °F 48% 29.99 in 9.0 mi Calm Calm - N/A   Clear
7:17 AM 48.2 °F 30.2 °F 50% 30.00 in 6.0 mi Calm Calm - N/A   Haze
7:56 AM 50.0 °F 34.0 °F 54% 30.00 in 6.0 mi Calm Calm - N/A   Haze
8:33 AM 57.2 °F 35.6 °F 44% 30.01 in 6.0 mi Calm Calm - N/A   Haze
8:56 AM 60.1 °F 36.0 °F 41% 30.01 in 6.0 mi Calm Calm - N/A   Haze
9:56 AM 68.0 °F 39.0 °F 35% 30.02 in 6.0 mi NNW 3.5 mph - N/A   Haze
10:56 AM 73.9 °F 41.0 °F 30% 30.00 in 6.0 mi North 4.6 mph - N/A   Haze
11:56 AM 79.0 °F 44.1 °F 29% 29.99 in 7.0 mi NW 4.6 mph - N/A   Scattered Clouds
12:56 PM 82.0 °F 42.1 °F 24% 29.96 in 7.0 mi North 5.8 mph - N/A   Scattered Clouds
1:56 PM 84.9 °F 39.9 °F 20% 29.92 in 8.0 mi North 5.8 mph - N/A   Scattered Clouds
2:56 PM 89.1 °F 39.0 °F 17% 29.91 in 10.0 mi North 6.9 mph - N/A   Scattered Clouds
3:56 PM 89.1 °F 39.9 °F 18% 29.89 in 9.0 mi NNE 9.2 mph - N/A   Scattered Clouds
4:56 PM 86.0 °F 42.1 °F 21% 29.88 in 8.0 mi NNE 9.2 mph - N/A   Scattered Clouds
5:56 PM 80.1 °F 39.9 °F 24% 29.88 in 9.0 mi North 6.9 mph - N/A   Scattered Clouds
6:56 PM 73.0 °F 41.0 °F 31% 29.89 in 9.0 mi North 6.9 mph - N/A   Scattered Clouds
7:56 PM 70.0 °F 39.9 °F 33% 29.90 in 8.0 mi NW 8.1 mph - N/A   Scattered Clouds
8:56 PM 71.1 °F 41.0 °F 34% 29.91 in 7.0 mi NW 10.4 mph - N/A   Scattered Clouds
9:56 PM 64.0 °F 37.9 °F 38% 29.93 in 9.0 mi NW 5.8 mph - N/A   Scattered Clouds
10:56 PM 63.0 °F 39.0 °F 41% 29.93 in 9.0 mi West 6.9 mph - N/A   Partly Cloudy
11:56 PM 59.0 °F 37.9 °F 46% 29.92 in 9.0 mi WNW 5.8 mph - N/A   Partly Cloudy